Domov               UVHVVR             MKGP            O straneh              
ZDRAVSTVENO VARSTVO RASTLIN
  MREŽA AGROMET. POSTAJ
 ► PROGNOSTIČNA OBVESTILA
AGROMETEOROLOŠKI PODATKI -
ARSO
OBVLADOVANJE TVEGANJ ZARADI
NEUGODNIH VREMENSKIH RAZMER
  ► NARAVNE NESREČE
  ► SUŠA/MOČA
  ► NAMAKANJE
  ► ŽLED (gozdarstvo)
KARTOGRAFSKI PRIKAZI
SPLETNE POVEZAVE
PROJEKTI IN PUBLIKACIJE

AGROMETEOROLOŠKA MREŽA: VREMENSKE POSTAJE IN FENOLOŠKA OPAZOVANJA

Pregled podatkov za lokacijo Sremič, meteorološka postaja 49592

Pregled senzorjev na lokaciji

ID Ime Zadnja
vrednost
Datum
zadnje
spremembe
Tip
senzorja
3945 Relativna vlaga 2 m (% RH) 71,85 % RH 14.12.2017 07:00 Generic 0 - 100 %
3946 Temperatura 2 m (°C) 4,47 °C 14.12.2017 07:00 Generic -40 - +60 °C
3947 Omočenost lista (U) 0 U 14.12.2017 07:00 A730WET
3948 Padavine (mm) 0 mm 14.12.2017 07:00 Generic 0.2 mm

Pregled podatkov zadnjih 24 ur

Zap.
št.
Datum in čas Sremič
Omočenost
lista
Padavine Relativna
vlaga
2
m
Temperatura
2
m
0 14.12.2017 07:00 0 0 71,85 4,47
1 14.12.2017 06:30 0 0 73,99 4,15
2 14.12.2017 06:00 0 0 75,63 3,83
3 14.12.2017 05:30 0 0 78,02 3,54
4 14.12.2017 05:00 0 0 82,09 2,87
5 14.12.2017 04:30 0 0 85,24 2,17
6 14.12.2017 04:00 2 0 84,92 2,3
7 14.12.2017 03:30 8 0,2 87,26 1,94
8 14.12.2017 03:00 10 3,8 97,94 0,91
9 14.12.2017 02:30 8 0,2 100 -0,03
10 14.12.2017 02:00 1 0 100 -1,08
11 14.12.2017 01:30 1 0 100 -0,88
12 14.12.2017 01:00 1 0 100 -0,9
13 14.12.2017 00:30 1 0 100 -0,75
14 14.12.2017 00:00 1 0 100 -0,71
15 13.12.2017 23:30 1 0 100 -0,58
16 13.12.2017 23:00 1 0 100 -0,47
17 13.12.2017 22:30 2 0 100 -0,35
18 13.12.2017 22:00 10 0 100 -0,3
19 13.12.2017 21:30 10 0 100 -0,04
20 13.12.2017 21:00 10 0 100 0,07
21 13.12.2017 20:30 10 0 100 0,18
22 13.12.2017 20:00 10 0 100 0,23
23 13.12.2017 19:30 10 0,2 100 0,14
24 13.12.2017 19:00 10 0 100 0,12
25 13.12.2017 18:30 10 0,2 99,76 0,14
26 13.12.2017 18:00 10 0 97,47 0,15
27 13.12.2017 17:30 10 0 96,42 0,08
28 13.12.2017 17:00 10 0 97,2 0,06
29 13.12.2017 16:30 10 0 95,21 0,25
30 13.12.2017 16:00 6 0 88,71 0,91
31 13.12.2017 15:30 3 0 87,86 1,18
32 13.12.2017 15:00 4 0 88,13 1,54
33 13.12.2017 14:30 9 0 87,47 1,83
34 13.12.2017 14:00 10 0 87,71 1,77
35 13.12.2017 13:30 10 0 88,33 1,73
36 13.12.2017 13:00 10 0 92,59 1,55
37 13.12.2017 12:30 10 0 95,55 1,39
38 13.12.2017 12:00 10 0,2 100 1,13
39 13.12.2017 11:30 10 0,4 100 1,38
40 13.12.2017 11:00 10 0,6 100 1,05
41 13.12.2017 10:30 10 0,4 100 0,32
42 13.12.2017 10:00 10 0,2 100 0,22
43 13.12.2017 09:30 10 0 100 0,2
44 13.12.2017 09:00 10 0,2 100 -0,05
45 13.12.2017 08:30 10 0 100 -0,11
46 13.12.2017 08:00 10 0 100 -0,18
47 13.12.2017 07:30 10 0 100 -0,21
© 2011 Ministrstvo za kmetijstvo, gozdarstvo in prehrano. Vse pravice pridržane.